sat.trackr.live / text

‹ back to catalog

KUIPER-00261

NORAD 67158 · 2025-301AB

PAYLOAD ACTIVE UNKNOWN

§ Identity

Operator
Country
US
Launch date
2025-12-16
Launch site
AFETR
Launch vehicle
Mass (kg)
RCS (m²)

External: N2YO · Heavens-Above · Gunter

§ Orbital elements

Epoch: 2026-09-20T08:12:39.561120Z

Period
97.30 min
Inclination
51.9004°
Eccentricity
0.0000790
Mean motion
14.79962267 rev/d
Perigee alt
628.9 km
Apogee alt
630.0 km
Semi-major
7,007.6 km
B*
6.2337e-4
RAAN
289.9276°
Arg perigee
97.2168°
Mean anomaly
262.8884°
Rev number
4,248

§ Raw data

KUIPER-002611 67158U 25301AB  26263.34212455  .00004537  00000+0  62337-3 0  99952 67158  51.9004 289.9276 0000790  97.2168 262.8884 14.79962267 42489

JSON: /api/v1/satellites/67158 · /tle

For live sub-satellite position, see the globe view (requires WebGL).

§ Visibility from observer

Set your observer location to see the next 7 days of passes ≥ 10°. The values pass through the URL so the page stays shareable.

No JS? Fill the form by hand. The geolocation button needs JavaScript.